Salamanca, Spain

9:25 AM CEST on March 29, 2017 (GMT +0200)
Salamanca

Weather History for LESA - February, 2012

Change the Weather History Date:

Sunday, February 12, 2012

  Actual Average Record
Temperature  
Mean Temperature 29 °F -  
Max Temperature 39 °F - - ()
Min Temperature 19 °F - - ()
Degree Days  
Heating Degree Days 36    
Moisture  
Dew Point 15 °F    
Average Humidity 59    
Maximum Humidity 86    
Minimum Humidity 26    
Precipitation  
Precipitation 0.00 in 0.04 in - ()
Sea Level Pressure  
Sea Level Pressure 30.29 in    
Wind  
Wind Speed 11 mph ()    
Max Wind Speed 22 mph    
Max Gust Speed 30 mph    
Visibility 7.1 miles    
Events      
T = Trace of Precipitation, MM = Missing Value Source: Averaged Metar Reports

Daily Weather History Graph

Daily Weather History Graph

Search for Another Location

Airport or City:

Trip Planner

Search our weather history database for the weather conditions in past years. The results will help you decide how hot, cold, wet, or windy it might be!

Date:

Astronomy

Feb. 12, 2012 Rise Set
Actual Time 8:21 AM CET 6:51 PM CET
Civil Twilight 7:52 AM CET 7:20 PM CET
Nautical Twilight 7:20 AM CET 7:52 PM CET
Astronomical Twilight 6:48 AM CET 8:24 PM CET
Moon No Moon Rise 10:27 AM CET (2/12)
Length of Visible Light 11h 27m
Length of Day
10h 30m
Waning Gibbous, 75% of the Moon is Illuminated
Feb 12
Waning Gibbous
Feb 14
Last Quarter
Feb 21
New
Mar 1
First Quarter
Mar 8
Full

Hourly Weather History & Observations

Time (CET) Temp. Windchill Dew Point Humidity Pressure Visibility Wind Dir Wind Speed Gust Speed Precip Events Conditions
12:00 AM 23.0 °F 13.1 °F 17.6 °F 80% 30.27 in - East 9.2 mph - N/A   Clear
1:00 AM 24 °F - 17 °F 64%  in 9 mi East 8.1 mph - -   Clear
1:00 AM 23.0 °F 13.9 °F 17.6 °F 80% 30.27 in - East 8.1 mph - N/A   Clear
2:00 AM 23.0 °F 11.7 °F 15.8 °F 74% 30.27 in - ESE 11.5 mph - N/A   Clear
3:00 AM 21.2 °F 11.7 °F 15.8 °F 80% 30.27 in - East 8.1 mph - N/A   Clear
4:00 AM 21.2 °F 11.7 °F 15.8 °F 80% 30.27 in - East 8.1 mph - N/A   Clear
5:00 AM 21.2 °F 9.5 °F 15.8 °F 80% 30.27 in - East 11.5 mph - N/A   Clear
6:00 AM 21.2 °F 10.1 °F 15.8 °F 80% 30.24 in - East 10.4 mph - N/A   Clear
7:00 AM 21 °F - 15 °F 70%  in 9 mi East 4.6 mph - -   Clear
7:00 AM 19.4 °F 14.3 °F 15.8 °F 86% 30.27 in - East 3.5 mph - N/A   Clear
7:30 AM 21.2 °F 11.7 °F 15.8 °F 80% 30.27 in - East 8.1 mph - N/A   Clear
8:00 AM 21.2 °F 12.6 °F 15.8 °F 80% 30.27 in - East 6.9 mph - N/A   Clear
8:30 AM 23.0 °F 11.7 °F 15.8 °F 74% 30.27 in 6.2 mi East 11.5 mph - N/A   Partly Cloudy
9:00 AM 23.0 °F 11.7 °F 15.8 °F 74% 30.30 in - East 11.5 mph - N/A   Clear
9:30 AM 24.8 °F 14.0 °F 17.6 °F 74% 30.30 in - ENE 11.5 mph - N/A   Clear
10:00 AM 26.6 °F 15.7 °F 17.6 °F 69% 30.30 in - East 12.7 mph - N/A   Clear
10:30 AM 28.4 °F 17.0 °F 17.6 °F 64% 30.33 in 6.2 mi East 15.0 mph - N/A   Scattered Clouds
11:00 AM 28.4 °F 17.0 °F 17.6 °F 64% 30.33 in 6.2 mi East 15.0 mph - N/A   Scattered Clouds
11:30 AM 30.2 °F 17.8 °F 17.6 °F 60% 30.33 in 6.2 mi ENE 19.6 mph - N/A   Partly Cloudy
12:00 PM 30.2 °F 17.8 °F 17.6 °F 60% 30.33 in 6.2 mi ENE 19.6 mph - N/A   Scattered Clouds
12:30 PM 30.2 °F 19.3 °F 17.6 °F 60% 30.33 in 6.2 mi ENE 15.0 mph - N/A   Scattered Clouds
1:00 PM 34 °F - 18 °F 37%  in 12 mi NE 17.3 mph - -   Partly Cloudy
1:00 PM 33.8 °F 23.5 °F 17.6 °F 52% 30.33 in 6.2 mi NE 16.1 mph - N/A   Scattered Clouds
1:30 PM 33.8 °F 23.5 °F 19.4 °F 56% 30.30 in 6.2 mi ENE 16.1 mph - N/A   Scattered Clouds
2:00 PM 35.6 °F 25.5 °F 19.4 °F 52% 30.30 in 6.2 mi NE 17.3 mph - N/A   Partly Cloudy
2:30 PM 37.4 °F 27.2 °F 15.8 °F 41% 30.27 in 6.2 mi NE 19.6 mph - N/A   Partly Cloudy
3:00 PM 37.4 °F 26.6 °F 12.2 °F 36% 30.27 in 6.2 mi NE 21.9 mph - N/A   Partly Cloudy
3:30 PM 37.4 °F 27.2 °F 10.4 °F 33% 30.27 in 6.2 mi NE 19.6 mph - N/A   Partly Cloudy
4:00 PM 37.4 °F 27.5 °F 10.4 °F 33% 30.27 in - ENE 18.4 mph 29.9 mph N/A   Clear
4:30 PM 37.4 °F 27.5 °F 10.4 °F 33% 30.27 in - ENE 18.4 mph - N/A   Clear
5:00 PM 37.4 °F 27.2 °F 10.4 °F 33% 30.27 in - ENE 19.6 mph - N/A   Clear
5:30 PM 35.6 °F 24.8 °F 10.4 °F 35% 30.27 in - ENE 19.6 mph - N/A   Clear
6:00 PM 35.6 °F 25.9 °F 12.2 °F 38% 30.27 in - ENE 16.1 mph - N/A   Clear
6:30 PM 33.8 °F 25.3 °F 10.4 °F 38% 30.30 in - ENE 11.5 mph - N/A   Clear
7:00 PM 33 °F - 11 °F 26%  in 9 mi ENE 10.4 mph - -  
7:00 PM 32.0 °F 23.6 °F 10.4 °F 41% 30.30 in - East 10.4 mph - N/A   Clear
8:00 PM 28.4 °F 21.2 °F 14.0 °F 55% 30.30 in - East 6.9 mph - N/A   Clear
9:00 PM 28.4 °F 18.0 °F 14.0 °F 55% 30.33 in - ENE 12.7 mph - N/A   Clear
10:00 PM 26.6 °F 18.2 °F 14.0 °F 59% 30.36 in - ENE 8.1 mph - N/A   Clear
11:00 PM 24.8 °F 20.5 °F 14.0 °F 64% 30.36 in - ENE 3.5 mph - N/A   Clear